Regional Weather Roundup
Issued by NWS Charleston, SC

Current Version | Previous Version | Text Only | Print | Product List | Glossary On
Versions: 1 2 3 4 5 6 7 8 9 10 11 12 13 14 15 16 17 18 19 20 21 22 23 24 25 26 27 28 29 30 31 32 33 34 35 36 37 38 39 40 41 42 43 44 45 46 47 48 49 50
000 ASUS42 KCHS 151825 RWRCHS REGIONAL WEATHER ROUNDUP NATIONAL WEATHER SERVICE CHARLESTON SC 200 PM EDT MON SEP 15 2014 NOTE: "FAIR" INDICATES FEW OR NO CLOUDS BELOW 12,000 FEET WITH NO SIGNIFICANT WEATHER AND/OR OBSTRUCTIONS TO VISIBILITY. NOT ALL STATIONS ARE QUALITY CONTROLLED BY THE NATIONAL WEATHER SERVICE. USE DATA WITH CAUTION...ESPECIALLY DEWPOINT OBSERVATIONS. SCZ027-030-031-034>040-042>050-151900- ...SOUTH CAROLINA... CITY SKY/WX TMP DP RH WIND PRES REMARKS N CHARLESTON PTSUNNY 87 73 62 N5 30.14F HX 94 6HR MIN TEMP: 71; 6HR MAX TEMP: 88; WATERFRONT PRK N/A 82 N/A N/A SE7 N/A FORT JOHNSON NOT AVBL MOUNT PLEASANT FAIR 84 75 74 SE6 30.14F HX 92 JOHNS ISLAND PTCLDY 84 81 89 SE8 30.14F HX 98 PINOPOLIS N/A 81 72 74 N3 30.10F MONCKS CORNER N/A 82 75 78 CALM 30.15F SUMMERVILLE MOCLDY 82 73 74 CALM 30.16S BEAUFORT MCAS PTSUNNY 84 74 71 VRB3 30.14F HX 91 6HR MIN TEMP: 73; 6HR MAX TEMP: 83; BEAUFORT ARPT CLOUDY 79 75 89 CALM 30.14F HILTON HEAD IS CLOUDY 81 75 83 N6 30.16F GEORGETOWN NOT AVBL WALTERBORO MOCLDY 82 73 74 W6 30.15F ORANGEBURG CLOUDY 77 69 76 NE5 30.17F 6HR MIN TEMP: 69; 6HR MAX TEMP: 76; 6HR PCP: 0.02; BARNWELL CLOUDY 77 72 83 CALM 30.17F AIKEN CLOUDY 72 72 100 E5 30.22F MANNING MOCLDY 79 77 94 CALM 30.16F KINGSTREE NOT AVBL COLUMBIA LGT RAIN 73 68 84 E3 30.17F 6HR MIN TEMP: 68; 6HR MAX TEMP: 73; 6HR PCP: 0.01; SUMTER CLOUDY 75 67 76 E3 30.17F 6HR MIN TEMP: 67; 6HR MAX TEMP: 76; 6HR PCP: TRACE; FLORENCE CLOUDY 77 67 71 CALM 30.17F 6HR MIN TEMP: 69; 6HR MAX TEMP: 78; MYRTLE BEACH CLOUDY 75 70 83 E7 30.17F N MYRTLE BEACH CLOUDY 75 69 81 NE7 30.17F 6HR MIN TEMP: 69; 6HR MAX TEMP: 76; 6HR PCP: 0.47; $$ GAZ063-065-086>088-099>101-113>116-118-119-134-136>141-150-151900- ...GEORGIA... CITY SKY/WX TMP DP RH WIND PRES REMARKS SAVANNAH ARPT PTSUNNY 86 75 69 NE7 30.14F HX 95 6HR MIN TEMP: 75; 6HR MAX TEMP: 88; HUNTER AAF TSTM 73 72 94 E8 30.12F FOG 6HR MIN TEMP: 75; 6HR MAX TEMP: 87; 6HR PCP: TRACE; FORT STEWART TSTM 75 73 94 S8 30.12F VSB 1 STATESBORO NOT AVBL SYLVANIA CLOUDY 79 75 87 CALM 30.16F CLAXTON NOT AVBL THOMSON CLOUDY 75 74 98 CALM 30.22F AUGUSTA-BUSH CLOUDY 74 70 87 CALM 30.17F 6HR MIN TEMP: 69; 6HR MAX TEMP: 74; 6HR PCP: 0.02; AUGUSTA-DANIEL CLOUDY 73 70 90 E3 30.18F SWAINSBORO CLOUDY 81 81 100 CALM 30.17F HX 91 VIDALIA CLOUDY 82 75 78 N3 30.15F ALMA MOSUNNY 88 74 63 VRB5 30.13F HX 96 6HR MIN TEMP: 74; 6HR MAX TEMP: 89; WAYCROSS PTSUNNY 91 78 64 CALM 30.11F HX 106 JESUP N/A 90 77 66 N7 30.11F HX 102 BRUNSWICK PTSUNNY 84 75 74 NE5 30.13F HX 92 SAINT SIMONS MOSUNNY 85 73 67 E10 30.13F HX 91 6HR MIN TEMP: 76; 6HR MAX TEMP: 87; $$ SCZ027-028-034-036>038-045-046-048>050-GAZ119-141-151900- ...LAKE AND SUPPLEMENTAL COASTAL OBSERVATIONS... STATION/POSITION TIME TEMP WIND PRES WAVE SWELL AIR SEA DIR/SP/G HT/PER HT/PER/DIR (UTC) (F) (DEG/KT/KT) (MB) (FT/S) (FT/S/D) UPR LAKE MARION NOT AVBL WINYAH BAY 1800 76 70/ 7 1021.0S LAKE MURRAY 1700 71 130/ 1/ 4 1022.0F ACE BASIN NERRS 1800 84 CALM 1021.0F FORT PULASKI 1800 80 70/ 10/ 11 1021.2F SAPELO ISLAND 1700 86 80/ 7 1022.0S $$ ANZ835-935-AMZ111-154-330-350-352-354-374-450-454-472-151900- ...C-MAN AND BUOY OBSERVATIONS... STATION/POSITION TIME TEMP WIND PRES WAVE SWELL AIR SEA DIR/SP/G HT/PER HT/PER/DIR (UTC) (F) (DEG/KT/KT) (MB) (FT/S) (FT/S/D) FOLLY BEACH CMAN 1800 81 110/ 7/ 8 1021.2F BUOY 41004 1800 81 84 30/ 4/ 4 1020.4F 2/ 5 2/ 5 BUOY 41008 1800 81 85 80/ 8/ 10 1020.5F 2/ 6 2/ 60/ 6 5E ST. MARYS GA 1800 87 N/A 2/ 6 FRYING PAN BUOY NOT AVBL BUOY 41025 1800 74 10/ 12/ 16 1021.1F 4/ 7 3/ 50/ 7 CAPE LOOKOUT NC 1800 75 40/ 11/ 12 1021.4F BUOY 41002 1651 76 83 280/ 2/ 4 1021.2F 4/ 5 3/270/ 5 BUOY 41010 1800 82 85 200/ 4/ 6 1021.1F 2/ 8 2/ 70/ 8 BUOY 41012 NOT AVBL ST AUGUSTINE FL 1800 82 100/ 6/ 7 1021.3F CAPERS NEARSHORE 1700 81 70/ 8/ 10 N/A FRIPP NEARSHORE NOT AVBL $$

USA.gov is the U.S. government's official web portal to all federal, state and local government web resources and services.